Home   Weather   Bnei Brak   Past weeks

Flag for Israel Past Weather in Bnei Brak, Israel — Yesterday and Last 2 Weeks

66 °F


Feels Like: 66 °F
Forecast: 72 / 79 °F
Wind: 3 mph from North

Location: Ben Gurion International Airport

Current Time: Oct 21, 2016 at 3:38:34 AM

Latest Report: Oct 21, 2016 at 3:20 AM

Visibility: 10 mi

Pressure: 29.92 "Hg

Humidity: 73%

Dew Point: 57 °F

Location of Bnei BrakLocation

Past Weather in Bnei Brak — Graph


Bnei Brak Temperature Yesterday

Maximum temperature yesterday: 82 °F (at 12:20 PM)
Minimum temperature yesterday: 64 °F (at 4:50 AM)
Average temperature yesterday: 73 °F

High & Low Weather Summary for the Past Weeks

High91 °F (Oct 13, 11:50 AM)89% (Oct 14, 11:50 PM)30.07 "Hg (Oct 14, 11:50 PM)
Low63 °F (Oct 16, 6:50 AM)22% (Oct 14, 10:50 AM)29.86 "Hg (Oct 16, 2:20 PM)
Average76 °F62%29.96 "Hg
* Reported Oct 6 2:20 AM — Oct 21 2:20 AM, Bnei Brak, Weather by CustomWeather, © 2016

Note: Actual official high and low records may vary slightly from our data, if they occured in-between our weather recording intervals... More about our weather records


Bnei Brak Weather History for the Previous 24 Hours

Scroll right to see more
Time TempWeatherWind HumidityBarometerVisibility
2:20 AM
Fri, Oct 21
68 °FClear.2 mph73%29.92 "Hg10 mi
1:50 AM68 °FClear.2 mph73%29.92 "Hg10 mi
1:20 AM68 °FClear.2 mph69%29.92 "Hg10 mi
12:50 AM70 °FClear.3 mph69%29.92 "Hg10 mi
12:20 AM70 °FClear.1 mph73%29.95 "Hg10 mi
11:50 PM
Thu, Oct 20
70 °FClear.1 mph69%29.95 "Hg10 mi
11:20 PM72 °FClear.3 mph65%29.95 "Hg10 mi
10:50 PM72 °FClear.2 mph69%29.95 "Hg10 mi
10:20 PM72 °FClear.5 mph69%29.95 "Hg10 mi
9:50 PM72 °FClear.3 mph69%29.95 "Hg10 mi
9:20 PM73 °FClear.3 mph65%29.95 "Hg10 mi
8:50 PM73 °FClear.3 mph65%29.95 "Hg10 mi
8:20 PM73 °FClear.3 mph65%29.95 "Hg10 mi
7:50 PM75 °FClear.7 mph61%29.92 "Hg10 mi
7:20 PM75 °FClear.8 mph61%29.92 "Hg10 mi
6:50 PM75 °FClear.9 mph61%29.92 "Hg10 mi
6:20 PM77 °FClear.9 mph57%29.92 "Hg10 mi
5:50 PM77 °FSunny.12 mph57%29.92 "Hg10 mi
5:20 PM79 °FSunny.10 mph48%29.92 "Hg10 mi
4:50 PM79 °FSunny.12 mph51%29.89 "Hg10 mi
4:20 PM81 °FSunny.13 mph45%29.89 "Hg10 mi
3:50 PM81 °FPassing clouds.13 mph42%29.92 "HgN/A
2:20 PM82 °FSunny.14 mph40%29.92 "Hg10 mi
1:50 PM82 °FSunny.13 mph40%29.92 "Hg10 mi
1:20 PM81 °FPassing clouds.14 mph45%29.92 "HgN/A
12:50 PM82 °FPassing clouds.10 mph45%29.95 "HgN/A
12:20 PM82 °FPassing clouds.12 mph45%29.95 "HgN/A
11:50 AM81 °FPassing clouds.7 mph48%29.95 "HgN/A
11:20 AM81 °FSunny.6 mph48%29.98 "Hg10 mi
10:50 AM79 °FSunny.7 mph51%29.98 "Hg10 mi
10:20 AM77 °FSunny.5 mph54%29.98 "Hg10 mi
9:50 AM77 °FSunny.3 mph54%29.98 "Hg10 mi
9:20 AM75 °FSunny.3 mph57%29.98 "Hg10 mi
8:50 AM73 °FSunny.3 mph61%29.98 "Hg10 mi
8:20 AM70 °FSunny.3 mph69%29.98 "Hg10 mi
7:50 AM68 °FSunny.5 mph73%29.98 "Hg10 mi
7:20 AM66 °FSunny.1 mph73%29.98 "Hg10 mi
6:50 AM64 °FSunny.1 mph78%29.98 "Hg10 mi
6:20 AM64 °FClear.3 mph78%29.98 "Hg10 mi
5:50 AM66 °FPassing clouds.2 mph73%29.98 "HgN/A
5:20 AM66 °FPassing clouds.3 mph73%29.98 "HgN/A
4:50 AM64 °FPassing clouds.3 mph73%29.98 "HgN/A
4:20 AM68 °FPassing clouds.3 mph69%29.98 "HgN/A
3:50 AM66 °FPassing clouds.3 mph73%29.98 "HgN/A
3:20 AM66 °FPassing clouds.3 mph73%29.98 "HgN/A
Weather by CustomWeather, © 2016

See weather overviewHow to use our weather pages